GW3760 Weather Reports


time (UTC)temp
F
wind
direction
speed
knots
gust
knots
rain 1hr
in
rain 24hr
in
rain mn
in
humidity
%
barometer
mb
20260507141537 52 85 0.0 3.5 0.00 0.00 0.00 76 1020.9
20260507140008 52 251 0.0 1.7 0.00 0.00 0.00 76 1020.7
20260507134533 52 106 0.0 2.6 0.00 0.00 0.00 76 1020.7
20260507133142 52 314 0.0 0.9 0.00 0.00 0.00 75 1020.5
20260507131545 52 314 0.0 0.9 0.00 0.00 0.00 74 1020.4
20260507130107 52 314 0.0 1.7 0.00 0.00 0.00 74 1020.5
20260507124509 52 245 0.0 0.9 0.00 0.00 0.00 74 1020.5
20260507123058 52 272 0.0 0.9 0.00 0.00 0.00 74 1020.5
20260507121508 52 272 0.0 0.0 0.00 0.00 0.00 74 1020.5
20260507120056 52 249 0.0 2.6 0.00 0.00 0.00 74 1020.6
20260507114603 52 278 0.0 0.0 0.00 0.00 0.00 74 1020.7
20260507113041 53 278 0.0 0.0 0.00 0.00 0.00 75 1020.8
20260507111540 53 278 0.0 0.9 0.00 0.00 0.00 74 1020.8
20260507110018 53 278 0.0 0.9 0.00 0.00 0.00 74 1020.8
20260507104520 53 260 0.0 0.0 0.00 0.00 0.00 74 1020.9
20260507103023 53 289 0.0 0.0 0.00 0.00 0.00 74 1021.0
20260507101504 53 342 0.0 0.0 0.00 0.00 0.00 74 1021.1
20260507100056 53 299 0.0 0.0 0.00 0.00 0.00 74 1021.1
20260507094601 53 298 0.0 2.6 0.00 0.00 0.00 75 1021.2
20260507093019 54 349 0.0 1.7 0.00 0.00 0.00 76 1021.4
20260507091525 54 10 0.0 1.7 0.00 0.00 0.00 77 1021.5
20260507090020 54 315 0.0 0.9 0.00 0.00 0.00 77 1021.6
20260507084522 54 4 0.0 1.7 0.00 0.00 0.00 78 1021.5
20260507083058 54 354 0.0 2.6 0.00 0.00 0.00 78 1021.5
20260507081554 54 328 0.0 2.6 0.00 0.00 0.00 78 1021.6
20260507080033 54 278 0.0 4.3 0.00 0.00 0.00 77 1021.5
20260507074532 54 294 0.9 2.6 0.00 0.00 0.00 77 1021.6
20260507073034 54 323 0.9 3.5 0.00 0.00 0.00 77 1021.5
20260507071529 54 35 0.0 2.6 0.00 0.00 0.00 77 1021.5
20260507070043 54 293 0.0 4.3 0.00 0.00 0.00 77 1021.5
20260507064600 54 288 0.0 5.2 0.00 0.00 0.00 77 1021.4
20260507064502 54 288 0.0 5.2 0.00 0.00 0.00 77 1021.4
20260507063009 55 41 1.7 5.2 0.00 0.00 0.00 78 1021.5
20260507061547 55 69 1.7 7.0 0.00 0.00 0.00 78 1021.6
20260507060048 55 38 0.9 5.2 0.00 0.00 0.00 78 1021.5
20260507054533 55 328 0.0 4.3 0.00 0.00 0.00 78 1021.4
20260507053016 55 354 0.9 4.3 0.00 0.00 0.00 78 1021.4
20260507051555 56 20 2.6 7.8 0.00 0.00 0.00 77 1021.4
20260507050027 56 343 1.7 5.2 0.00 0.00 0.00 77 1021.4
20260507044622 56 4 1.7 5.2 0.00 0.00 0.00 76 1021.6
20260507044502 56 18 0.9 5.2 0.00 0.00 0.00 76 1021.5
20260507043029 57 344 0.0 3.5 0.00 0.00 0.00 75 1021.4
20260507041553 57 340 1.7 4.3 0.00 0.00 0.00 75 1021.2
20260507040049 57 331 3.5 8.7 0.00 0.00 0.00 75 1021.0
20260507034544 58 340 1.7 5.2 0.00 0.00 0.00 75 1020.9
20260507033031 58 17 0.9 8.7 0.00 0.00 0.00 74 1020.6
20260507031510 59 359 1.7 7.0 0.00 0.00 0.00 74 1020.4
20260507024512 60 4 0.0 3.5 0.00 0.00 0.00 73 1020.0
20260507023052 61 320 1.7 3.5 0.00 0.00 0.00 72 1019.9
20260507021537 61 57 0.9 3.5 0.00 0.00 0.00 71 1019.8
20260507020058 62 310 0.9 4.3 0.00 0.00 0.00 69 1019.9
20260507014549 63 87 1.7 9.6 0.00 0.00 0.00 69 1020.0
20260507013016 64 350 5.2 9.6 0.00 0.00 0.00 68 1019.9
20260507011528 65 326 4.3 10.4 0.00 0.00 0.00 67 1019.9
20260507010004 65 346 1.7 7.8 0.00 0.00 0.00 68 1019.8
20260507004528 66 4 1.7 5.2 0.00 0.00 0.00 67 1019.8
20260507003040 67 339 2.6 7.0 0.00 0.00 0.00 66 1019.7
20260507001535 67 354 1.7 6.1 0.00 0.00 0.00 64 1019.7
20260507000012 67 135 0.9 4.3 0.00 0.00 0.00 66 1019.6
20260506234545 68 324 2.6 4.3 0.00 0.00 0.00 64 1019.7
20260506233057 68 97 0.9 3.5 0.00 0.00 0.00 62 1019.6
20260506231522 67 79 0.0 3.5 0.00 0.00 0.00 64 1019.8
20260506230103 68 202 0.0 3.5 0.00 0.00 0.00 63 1019.9
20260506230001 68 202 0.0 3.5 0.00 0.00 0.00 63 1020.0
20260506224541 68 238 0.0 2.6 0.00 0.00 0.00 65 1020.1
20260506223055 68 318 0.0 2.6 0.00 0.00 0.00 62 1020.3
20260506221533 68 193 0.9 4.3 0.00 0.00 0.00 64 1020.4
20260506220014 66 147 0.9 3.5 0.00 0.00 0.00 66 1020.5
20260506214533 65 173 2.6 5.2 0.00 0.00 0.00 67 1020.4
20260506213014 65 77 1.7 6.1 0.00 0.00 0.00 67 1020.5
20260506211535 67 148 0.9 4.3 0.00 0.00 0.00 67 1020.7
20260506210052 64 189 2.6 4.3 0.00 0.00 0.00 71 1021.0
20260506204535 64 318 0.9 4.3 0.00 0.00 0.00 71 1020.9
20260506203053 64 209 0.0 3.5 0.00 0.00 0.00 73 1020.9
20260506201513 63 98 0.9 3.5 0.00 0.00 0.00 72 1020.9
20260506200049 62 220 0.9 2.6 0.00 0.00 0.00 74 1021.0
20260506194517 63 175 0.0 3.5 0.00 0.00 0.00 74 1021.2
20260506193008 62 150 1.7 4.3 0.00 0.00 0.00 73 1021.3
20260506191543 61 236 0.9 5.2 0.00 0.00 0.00 74 1021.3
20260506190001 61 185 1.7 5.2 0.00 0.00 0.00 76 1021.1
20260506184547 60 198 0.9 6.1 0.00 0.00 0.00 76 1021.0
20260506183023 61 154 0.0 2.6 0.00 0.00 0.00 74 1021.0
20260506181605 61 195 0.9 4.3 0.00 0.00 0.00 75 1021.1
20260506180037 59 186 0.0 3.5 0.00 0.00 0.00 78 1021.0
20260506174519 59 199 1.7 4.3 0.00 0.00 0.00 79 1021.1
20260506173124 58 156 0.0 3.5 0.00 0.00 0.00 81 1020.8
20260506171528 57 227 1.7 4.3 0.00 0.00 0.00 82 1020.7
20260506170046 57 205 0.9 2.6 0.00 0.00 0.00 82 1020.8
20260506164541 57 164 0.0 1.7 0.00 0.00 0.00 83 1021.0
20260506163031 57 220 0.9 4.3 0.00 0.00 0.00 83 1020.8
20260506161641 57 224 0.9 2.6 0.00 0.00 0.00 83 1020.7
20260506161500 57 224 0.9 2.6 0.00 0.00 0.00 83 1020.7
20260506160021 56 114 0.0 2.6 0.00 0.00 0.00 84 1020.4
20260506154555 56 179 1.7 5.2 0.00 0.00 0.00 84 1020.3
20260506153047 56 168 0.9 3.5 0.00 0.00 0.00 84 1020.3
20260506151507 56 164 0.0 1.7 0.00 0.00 0.00 84 1020.8
20260506150044 56 114 0.0 1.7 0.00 0.00 0.00 83 1020.8
20260506144600 56 95 0.9 1.7 0.00 0.00 0.00 83 1020.6
20260506144509 56 96 0.9 1.7 0.00 0.00 0.00 83 1020.5
20260506143045 56 338 2.6 4.3 0.00 0.00 0.00 83 1020.4